{"data":{"norad_id":51137,"epoch":"2026-05-24T21:25:21.224928Z","epoch_age_seconds":98385,"freshness":"FRESH","line1":"1 51137U 22005AK  26144.89260677  .00001600  00000+0  11862-3 0  9995","line2":"2 51137  53.2136 317.0309 0001744  77.6533 282.4655 15.08827164240245","mean_motion":15.08827164,"eccentricity":0.0001744,"inclination_deg":53.2136,"raan_deg":317.0309,"arg_perigee_deg":77.6533,"mean_anomaly_deg":282.4655,"bstar":0.00011862,"rev_number":24024,"period_min":95.438366590807,"perigee_km":538.57613857675,"apogee_km":540.98910894152,"semimajor_km":6917.9196237591,"source":"CELESTRAK","updated_at":"2026-05-25T13:38:16.913649Z"}}